User: anonymous   Login
Location: Camps Bay
(33.9517°S, 18.3844°E)
Time: 14:04:40
(UTC+00:00)
Language:

STARLINK-1082 - Orbit

View from above orbital plane
View from above orbital plane
View from above satellite
View from above satellite

Ground track
Ground track

The orbit data is extracted from the following two-line orbital elements,

1 44938C 20001AA  20095.19735119  .00006307  00000-0  43184-3 0   959
2 44938  53.0005 327.9039 0001889  77.3284  21.8589 15.05588365    13
Epoch (UTC): 04 April 2020 04:44:11
Eccentricity: 0.0001889
inclination: 53.0005°
perigee height: 548 km
apogee height: 551 km
right ascension of ascending node: 327.9039°
argument of perigee: 77.3284°
revolutions per day: 15.05588365
mean anomaly at epoch: 21.8589°
orbit number at epoch: 1

The dashed part of the orbit path shows where the satellite is in the earth's shadow,  

DLR